Weather History for Barrow, AK

Change the Weather History Date:

Wednesday, January 2, 2013

  Actual Average Record
Temperature  
Mean Temperature -5 °F -12 °F  
Max Temperature -2 °F -5 °F 30 °F (1968)
Min Temperature -8 °F -18 °F -50 °F (1975)
Degree Days  
Heating Degree Days 70 77  
Month to date heating degree days 140 153  
Since 1 July heating degree days 7517 8360  
Cooling Degree Days 0    
Month to date cooling degree days 0  
Year to date cooling degree days 0  
Moisture  
Dew Point -9 °F    
Average Humidity 0    
Maximum Humidity 0    
Minimum Humidity 0    
Precipitation  
Precipitation T in 0.01 in 0.13 in (2011)
Month to date precipitation T 0.01  
Year to date precipitation T 0.01  
Snow  
Snow T in 0.10 in 2.70 in (2011)
Month to date snowfall T 0.2  
Since 1 July snowfall 37.6 24.0  
Snow Depth 6.00 in    
Sea Level Pressure  
Sea Level Pressure 29.74 in    
Wind  
Wind Speed 18 mph (NE)    
Max Wind Speed 23 mph    
Max Gust Speed 28 mph    
Visibility 7 miles    
Events Snow    
T = Trace of Precipitation, MM = Missing Value Source: NWS Daily Summary

Daily Weather History Graph

Daily Weather History Graph

Search for Another Location

Airport:

Trip Planner

Search our weather history database for the weather conditions in past years. The results will help you decide how hot, cold, wet, or windy it might be!

Date:

Astronomy

Dec. 31, 1969 Rise Set
Actual Time Sun does not rise Sun does not rise
Civil Twilight 11:42 AM AKST 3:20 PM AKST
Nautical Twilight 9:42 AM AKST 5:21 PM AKST
Astronomical Twilight 8:17 AM AKST 6:46 PM AKST
Moon No Moon Rise 11:49 AM AKST (1/2)
Length of Visible Light 3h 38m
Length of Day
0h 00m
Waning Gibbous, 74% of the Moon is Illuminated
Jan 2
Waning Gibbous
Jan 4
Last Quarter
Jan 11
New
Jan 18
First Quarter
Jan 26
Full

Hourly Weather History & Observations

Time (AKST) Temp. Windchill Dew Point Humidity Pressure Visibility Wind Dir Wind Speed Gust Speed Precip Events Conditions
12:53 AM -2.9 °F -25.6 °F -7.1 °F 82% 29.74 in 10.0 mi NE 19.6 mph - N/A   Overcast
1:53 AM -4.0 °F -26.4 °F -8.0 °F 83% 29.73 in 10.0 mi NNE 18.4 mph - N/A   Scattered Clouds
2:53 AM -4.0 °F -27.0 °F -8.0 °F 83% 29.72 in 10.0 mi NE 19.6 mph - N/A   Mostly Cloudy
3:53 AM -4.0 °F -27.6 °F -8.0 °F 83% 29.72 in 10.0 mi NE 20.7 mph - N/A   Mostly Cloudy
4:53 AM -5.1 °F -27.2 °F -9.0 °F 83% 29.71 in 10.0 mi NE 17.3 mph - N/A   Mostly Cloudy
5:53 AM -5.1 °F -27.2 °F -9.0 °F 83% 29.70 in 10.0 mi NNE 17.3 mph - N/A   Mostly Cloudy
6:53 AM -5.1 °F -27.2 °F -9.0 °F 83% 29.70 in 10.0 mi NE 17.3 mph - N/A   Mostly Cloudy
7:53 AM -5.1 °F -27.8 °F -9.0 °F 83% 29.71 in 8.0 mi NE 18.4 mph - N/A   Scattered Clouds
8:53 AM -4.0 °F -26.4 °F -8.0 °F 83% 29.70 in 7.0 mi NE 18.4 mph - N/A   Scattered Clouds
9:53 AM -4.0 °F -25.8 °F -7.1 °F 87% 29.71 in 10.0 mi NE 17.3 mph - N/A   Scattered Clouds
10:53 AM -5.1 °F -27.2 °F -9.0 °F 83% 29.73 in 10.0 mi NE 17.3 mph - N/A   Scattered Clouds
11:53 AM -5.1 °F -25.1 °F -9.0 °F 83% 29.73 in 9.0 mi NE 13.8 mph - N/A   Mostly Cloudy
12:53 PM -5.1 °F -27.2 °F -9.0 °F 83% 29.74 in 10.0 mi NE 17.3 mph - N/A   Mostly Cloudy
1:53 PM -5.1 °F -28.4 °F -9.9 °F 80% 29.74 in 10.0 mi NE 19.6 mph - N/A   Mostly Cloudy
2:53 PM -6.0 °F -29.0 °F -9.9 °F 83% 29.74 in 10.0 mi NE 18.4 mph - N/A   Mostly Cloudy
3:53 PM -6.0 °F -28.4 °F -11.0 °F 79% 29.75 in 7.0 mi NE 17.3 mph - N/A   Mostly Cloudy
4:53 PM -7.1 °F -29.1 °F - N/A% 29.75 in 7.0 mi NE 16.1 mph - N/A   Mostly Cloudy
5:53 PM -7.1 °F -30.4 °F - N/A% 29.76 in 8.0 mi NE 18.4 mph - N/A   Mostly Cloudy
6:53 PM -7.1 °F -29.8 °F - N/A% 29.76 in 10.0 mi NE 17.3 mph - N/A   Overcast
7:53 PM -7.1 °F -29.1 °F - N/A% 29.75 in 7.0 mi NE 16.1 mph - N/A   Mostly Cloudy
8:53 PM -8.0 °F -31.0 °F - N/A% 29.75 in 2.0 mi NE 17.3 mph - 0.00 in Snow Light Snow
9:31 PM -7.6 °F -31.7 °F - N/A% 29.74 in 2.5 mi NE 19.6 mph - 0.00 in Snow Light Snow
9:41 PM -7.6 °F -29.8 °F - N/A% 29.74 in 3.0 mi NE 16.1 mph - 0.00 in Snow Light Snow
9:53 PM -8.0 °F -31.0 °F - N/A% 29.75 in 3.0 mi NE 17.3 mph - 0.00 in Snow Light Snow
10:20 PM -7.6 °F -31.1 °F - N/A% 29.73 in 8.0 mi NE 18.4 mph - 0.00 in Snow Light Snow
10:22 PM -7.6 °F -31.1 °F - N/A% 29.73 in 8.0 mi NE 18.4 mph - 0.00 in   Overcast
10:44 PM -7.6 °F -30.5 °F - N/A% 29.74 in 2.5 mi NE 17.3 mph - 0.00 in Snow Light Snow
10:53 PM -7.1 °F -29.1 °F - N/A% 29.75 in 2.5 mi NE 16.1 mph 24.2 mph 0.00 in Snow Light Snow
11:00 PM -7.6 °F -29.8 °F - N/A% 29.75 in 3.0 mi NE 16.1 mph - 0.00 in Snow Light Snow
11:08 PM -7.6 °F -29.8 °F - N/A% 29.75 in 5.0 mi NE 16.1 mph - 0.00 in Snow Light Snow
11:41 PM -7.6 °F -30.5 °F - N/A% 29.75 in 1.8 mi NE 17.3 mph - 0.00 in Snow Light Snow
11:45 PM -7.6 °F -30.5 °F - N/A% 29.75 in 2.0 mi NE 17.3 mph - 0.00 in Snow Light Snow
11:53 PM -7.1 °F -30.4 °F - N/A% 29.76 in 2.5 mi NE 18.4 mph - 0.00 in Snow Light Snow